Regional Weather Roundup
Issued by NWS Kansas City/Pleasant Hill, MO

Home | Current Version | Previous Version | Text Only | Print | Product List | Glossary On
Versions: 1 2 3 4 5 6 7 8 9 10 11 12 13 14 15 16 17 18 19 20 21 22 23 24 25 26 27 28 29 30 31 32 33 34 35 36 37 38 39 40 41 42 43 44 45 46 47 48 49 50
000
ASUS43 KEAX 171210
RWREAX

WEATHER ROUNDUP FOR EASTERN KANSAS AND NORTHWEST MISSOURI
NATIONAL WEATHER SERVICE KANSAS CITY/PLEASANT HILL MO
700 AM CDT WED SEP 17 2014

KSZ040-057-103>105-MOZ028-029-037-043-171300-
...KANSAS CITY METROPOLITAN AREA...

CITY           SKY/WX    TMP DP  RH WIND       PRES   REMARKS
K.C. INTL      CLOUDY    63  61  93 NE7       29.91S
6HR MIN TEMP:  62; 6HR MAX TEMP:  64; 6HR PCP:  0.05;

K.C. DOWNTOWN  CLOUDY    64  62  93 CALM      29.91S
6HR MIN TEMP:  63; 6HR MAX TEMP:  67; 6HR PCP:  0.43;

LEES SUMMIT    LGT RAIN  63  62  97 VRB3      29.93R FOG
6HR MIN TEMP:  62; 6HR MAX TEMP:  64; 6HR PCP:  0.50;

OLATHE - IXD   CLOUDY    66  65  96 SE5       29.92R
6HR MIN TEMP:  63; 6HR MAX TEMP:  67; 6HR PCP:  1.34;

OLATHE - OJC   CLOUDY    64  64 100 SE6       29.91R
6HR MIN TEMP:  62; 6HR MAX TEMP:  64; 6HR PCP:  1.19;

LAWRENCE       CLOUDY    63  62  97 SE6       29.90F FOG

$$

MOZ001>008-011>017-020>025-030>033-038>040-044>046-053-054-171300-
...NORTHERN AND CENTRAL MISSOURI...

CITY           SKY/WX    TMP DP  RH WIND       PRES   REMARKS
ST. JOSEPH     CLOUDY    63  59  87 CALM      29.92S
6HR MIN TEMP:  62; 6HR MAX TEMP:  63;

MOSBY          CLOUDY    61  61 100 CALM      29.92F
WHITEMAN AFB   MOCLDY    62  61  97 S3        29.94F THUNDER
6HR MIN TEMP:  61; 6HR MAX TEMP:  62; 6HR PCP:  0.03;

CLINTON        CLOUDY    64  64 100 S12       29.93F FOG
SEDALIA        RAIN      63  61  93 S3        29.96S VSB 1
6HR MIN TEMP:  61; 6HR MAX TEMP:  63;

WARSAW         NOT AVBL
MARSHALL       CLOUDY    63  61  94 E3        29.96F
CHILLICOTHE      N/A     60  57  89 CALM      29.97R
6HR MIN TEMP:  59; 6HR MAX TEMP:  60; 6HR PCP:  0.01;

MOBERLY        CLOUDY    57  54  88 CALM      29.99R
KIRKSVILLE     CLOUDY    56  53  90 E3        29.99S
6HR MIN TEMP:  49; 6HR MAX TEMP:  56;


$$

MOZ041-047>049-056>058-063>065-088>090-097-171300-
...EASTERN AND SOUTHERN MISSOURI...

CITY           SKY/WX    TMP DP  RH WIND       PRES   REMARKS
ST. LOUIS INTL PTCLDY    55  50  83 SE5       30.02F
6HR MIN TEMP:  53; 6HR MAX TEMP:  56;

SPIRIT OF STL  PTCLDY    50  49  96 CALM      30.01S FOG
COLUMBIA       CLOUDY   N/A N/A N/A E6        29.97R
JEFFERSON CITY MOCLDY    59  56  89 SE3       29.98S
MEXICO         CLOUDY   N/A N/A N/A CALM      29.99R
ROLLA          CLOUDY    56  54  93 SE7       29.97S
LEBANON        TSTM      63  61  94 E3          N/A
OSAGE BEACH    CLOUDY    61  57  88 SE5       29.99R THUNDER
SPRINGFIELD    CLOUDY    65  64  97 S12       29.94S FOG
BRANSON        FOG       64  64 100 SE6       29.98F VSB 1/4
NEVADA         CLOUDY    64  64 100 N16       29.96R
JOPLIN         CLOUDY    71  68  90 SW14      29.92S
WEST PLAINS    CLOUDY    62  58  86 S8        30.02F

$$

IAZ060-094-KSZ022-034>040-054-083-096-NEZ052-066-093-171300-
...KANSAS...SOUTHEAST NEBRASKA AND IOWA...

CITY           SKY/WX    TMP DP  RH WIND       PRES   REMARKS
TOPEKA         CLOUDY    65  64  97 CALM      29.90S
6HR MIN TEMP:  64; 6HR MAX TEMP:  66; 6HR PCP:  0.10;

MANHATTAN      CLOUDY    68  66  93 SW6       29.87F FOG
EMPORIA        PTCLDY    65  64  97 SW6       29.88F FOG
CHANUTE        MOCLDY    69  68  96 SW9       29.91S FOG
WICHITA        MOCLDY    67  64  90 S8        29.90F FOG
OMAHA          PTCLDY    58  52  80 CALM      29.93F
LINCOLN        CLEAR     53  51  93 N3        29.93R
FALLS CITY     LGT RAIN  62  59  90 SE5       29.91S
LAMONI         CLOUDY    57  55  93 CALM      29.96S
DES MOINES     CLOUDY    58  50  75 SE5       29.96F

$$



USA.gov is the U.S. government's official web portal to all federal, state and local government web resources and services.